Tracking 19149 objects as of 20-Apr-2018
HD Live streaming from Space Station
objects crossing your sky now

HETE 2

Track HETE 2 now!
10-day predictions
HETE 2 is classified as:


NORAD ID: 26561
Int'l Code: 2000-061A
Perigee: 537.9 km
Apogee: 563.3 km
Inclination: 1.9 °
Period: 95.5 minutes
Semi major axis: 6921 km
RCS: 0.631 m2 (medium)
Launch date: October 9, 2000
Source: United States (US)
Launch site: Kwajalein (KWAJ)

Designed to detect and localize gamma-ray bursts.
aabbcc
Your satellite tracking list
Your tracking list is empty




NASA's NSSDC Master Catalog

Two Line Element Set (TLE):
1 26561U 00061A   18107.38793913  .00001412  00000-0  32856-4 0  9993
2 26561   1.9495 284.1873 0018348 220.1409 139.7276 15.07612746960835
Source of the keplerian elements: AFSPC